Theta_e
325 325 323 322 321 319 318 315 313 312 313 311 308 306 305 306 306 307 308 308 308 308 307 307 306 306 304 303 305 303 302 302 303 303 304 304 305 303 302 301 300 300 300
319 319 318 319 320 317 315 314 313 311 312 312 309 308 306 305 305 305 306 307 307 307 307 306 305 304 303 302 302 301 300 300 301 299 300 298 300 301 300 298 298 297 298
316 316 315 313 313 312 312 313 311 311 311 312 310 309 306 303 302 302 303 305 306 306 306 305 304 303 302 300 300 300 299 298 300 300 299 295 293 296 300 296 296 295 294
315 315 313 311 311 311 311 312 313 313 314 313 310 306 303 301 300 301 302 303 305 305 306 304 303 302 301 300 301 301 299 298 296 298 299 296 295 293 291 295 294 294 294
314 313 314 313 312 311 311 314 314 312 311 308 308 305 302 301 301 301 301 301 302 304 304 303 302 301 301 300 299 298 297 297 296 295 295 294 293 292 290 286 288 291 292
314 316 315 313 311 311 310 311 312 309 307 307 305 305 301 301 300 300 300 299 300 301 301 301 300 300 300 299 298 297 296 295 295 295 295 294 291 290 288 286 286 287 289
314 314 313 311 309 308 308 309 309 307 306 306 305 302 302 301 300 300 299 299 299 298 298 299 299 298 299 299 298 296 295 294 294 293 294 295 293 293 291 288 286 285 288
314 313 313 311 310 309 308 309 308 306 305 305 303 302 302 301 301 301 300 300 299 298 298 298 299 299 299 298 297 295 295 294 293 293 293 293 293 292 291 289 286 283 285
311 311 312 312 310 309 308 307 307 304 303 303 302 301 301 301 300 300 300 300 300 300 299 298 298 298 297 297 296 294 294 293 293 292 292 292 291 291 290 290 288 285 281
309 310 311 311 311 310 308 306 305 302 301 301 301 301 300 300 301 301 300 300 300 298 298 297 298 297 297 296 295 294 294 293 292 292 291 290 290 289 288 288 287 286 284
308 309 309 310 310 309 305 302 302 301 300 299 299 299 299 300 300 300 300 299 299 298 297 297 297 297 296 296 295 295 295 294 292 292 291 289 289 287 286 286 285 285 285
306 307 305 306 306 304 301 302 301 300 299 299 298 298 298 299 298 299 299 299 298 298 297 297 297 297 297 296 295 295 295 293 292 291 290 289 289 286 285 285 283 283 284
307 305 303 302 302 301 301 300 300 300 299 299 298 298 298 297 297 298 298 298 297 297 297 296 296 296 295 296 295 295 294 293 292 291 289 289 287 284 284 284 283 283 286
305 302 300 300 300 301 300 299 299 300 299 299 298 297 297 297 297 297 297 297 296 295 295 294 294 293 293 294 295 295 294 293 293 291 290 288 286 284 283 284 282 284 282
302 300 298 298 299 300 301 301 299 299 299 298 297 297 297 298 297 297 296 296 295 294 293 291 290 289 290 291 292 293 293 292 291 291 290 288 288 288 287 284 283 282 281
301 299 299 299 299 300 300 300 299 299 299 298 297 297 297 297 297 296 295 295 294 292 290 287 287 286 289 289 290 291 292 292 290 289 287 286 286 286 287 288 288 286 282
298 300 300 300 299 300 300 299 299 299 298 297 297 298 298 297 296 296 295 294 292 290 287 286 285 285 286 288 289 290 291 291 289 288 287 285 285 285 284 285 286 286 286
292 296 304 302 301 301 301 300 299 298 297 297 297 298 298 297 296 295 294 293 292 289 287 285 285 285 286 288 288 288 290 290 288 287 285 283 283 285 284 283 282 282 282
291 295 303 305 302 301 302 300 298 298 297 296 297 298 297 296 296 294 293 293 292 289 288 286 284 284 284 287 288 289 290 288 287 286 285 283 283 287 288 283 282 281 281
290 293 304 303 301 301 301 299 298 297 296 297 297 298 297 296 295 294 293 293 293 291 289 286 285 286 284 287 288 289 289 285 285 285 285 286 285 287 287 282 281 279 279
290 294 304 301 301 302 302 299 298 296 298 298 298 297 297 296 296 294 294 293 292 292 289 287 285 284 284 286 289 289 288 286 284 283 282 283 287 288 287 285 281 281 280
291 291 292 301 301 302 301 298 298 299 298 298 297 296 296 296 295 294 293 292 291 290 288 286 284 283 283 286 287 288 287 287 284 282 282 281 287 287 286 282 284 282 279
291 292 291 295 302 301 301 298 299 299 297 297 296 296 296 296 295 294 293 292 290 289 288 287 284 281 282 283 286 287 287 286 283 282 283 286 285 284 281 283 282 278 277
289 291 290 289 296 302 301 300 300 299 297 296 295 295 295 294 295 295 294 292 291 289 288 287 285 283 282 282 282 284 284 283 283 282 281 280 279 279 278 278 278 279 277
288 290 290 290 290 294 301 300 299 298 296 295 295 294 295 294 294 294 294 293 292 291 289 288 286 283 281 282 284 283 281 281 281 280 279 278 277 277 277 277 277 277 276
288 288 290 290 289 291 301 300 299 297 296 294 294 294 294 294 294 292 286 287 289 289 289 289 288 286 286 285 286 285 284 283 281 280 278 275 276 277 276 276 276 276 275
Wind_Speed
13 13 14 16 15 11 12 10 11 7 10 6 5 4 4 3 4 4 6 6 6 6 6 5 5 5 5 4 4 2 6 7 4 6 8 8 8 9 7 8 7 9 9
15 14 14 11 11 13 10 9 9 7 6 6 3 4 5 3 4 4 5 5 6 6 6 6 5 6 4 6 6 4 2 4 5 3 2 3 2 6 7 7 8 8 7
19 15 13 11 11 11 12 11 9 7 6 7 6 7 7 4 4 3 4 4 6 6 6 6 6 6 4 4 4 5 5 4 6 9 4 3 2 1 2 5 8 8 6
16 15 14 13 13 10 9 10 10 10 8 10 10 14 8 8 3 3 4 4 6 6 6 6 6 6 4 6 5 5 4 3 4 5 8 9 3 3 2 3 5 4 6
19 18 18 18 15 14 13 11 11 10 9 9 12 9 9 6 5 5 8 6 5 6 6 6 7 6 5 6 6 6 7 5 5 4 2 5 6 6 4 1 4 3 3
16 19 16 14 13 11 11 13 13 11 8 10 10 11 13 13 9 7 7 5 4 4 5 6 6 6 6 7 6 7 9 7 8 7 8 6 4 3 4 3 2 3 4
21 20 18 16 13 15 14 11 14 12 10 8 9 12 14 14 13 11 8 8 5 3 5 5 6 5 6 7 8 8 8 6 7 7 7 6 7 3 2 3 1 1 3
20 20 18 17 17 16 15 14 14 12 10 8 8 11 14 9 9 9 9 6 6 5 5 6 6 7 9 8 7 5 6 6 7 9 7 6 6 5 4 3 2 3 3
20 21 20 19 18 18 20 20 17 11 9 9 10 11 11 12 11 11 9 7 7 6 6 7 8 8 9 8 7 5 7 7 6 7 7 7 5 6 5 5 3 2 3
23 22 21 21 20 20 18 18 18 16 11 9 11 10 9 11 13 12 11 10 8 7 8 8 9 8 8 8 6 5 5 7 4 5 8 7 5 6 5 4 4 3 1
18 21 19 16 16 16 15 15 16 14 12 9 6 10 9 11 12 12 11 10 9 8 8 9 9 9 9 7 6 6 7 8 7 6 8 9 6 5 4 3 3 3 2
20 19 17 17 17 17 16 18 15 17 14 10 10 8 9 11 11 11 10 10 10 8 8 8 8 8 9 8 8 7 7 8 8 7 8 7 6 6 4 4 3 2 2
21 17 17 18 19 18 17 16 15 15 14 14 14 11 10 11 11 11 11 10 10 9 8 8 8 8 7 8 7 8 7 7 7 7 8 7 6 5 3 3 3 2 4
18 17 14 14 13 11 13 17 15 14 15 14 14 14 12 12 11 10 10 11 10 10 9 7 7 7 6 6 6 7 6 7 8 8 9 7 6 5 3 4 4 5 4
17 17 16 14 15 16 16 13 13 15 14 16 15 14 12 12 12 12 11 10 10 10 9 9 7 6 6 4 6 6 7 9 10 9 9 7 8 10 7 2 4 4 3
14 10 11 15 20 19 17 17 16 15 15 13 14 13 14 13 12 11 11 11 10 10 9 7 7 6 4 7 7 6 7 8 9 9 7 6 7 7 9 9 8 5 4
18 9 20 19 18 22 23 20 18 17 17 15 14 14 15 14 13 12 12 12 12 11 9 7 7 6 5 8 7 7 6 7 7 7 6 5 4 5 3 5 5 6 9
21 20 16 17 18 20 20 20 21 20 19 17 16 16 16 16 15 13 12 11 11 11 10 7 6 6 4 8 8 7 7 6 7 7 6 5 4 4 4 4 5 6 6
22 19 21 19 19 22 20 19 19 20 19 18 18 18 17 16 15 14 14 13 12 11 9 8 7 6 5 7 8 8 8 8 7 6 5 5 4 6 9 5 7 6 7
24 27 21 13 17 18 20 20 21 20 20 20 19 17 17 18 17 15 14 11 12 12 9 8 6 8 6 7 8 9 7 8 6 4 5 7 6 9 9 6 5 7 6
28 30 14 14 19 21 21 21 22 22 20 18 18 18 17 16 16 15 12 11 12 12 10 9 6 6 6 6 9 11 7 7 6 4 3 2 7 9 10 9 6 6 5
24 26 22 16 4 17 21 21 21 19 18 17 18 18 17 14 13 16 13 13 12 12 11 10 6 4 5 7 8 11 10 11 8 5 3 2 7 11 10 6 10 9 3
17 18 19 17 12 8 14 19 17 18 19 19 19 18 18 17 16 16 15 12 12 11 10 9 8 5 4 4 11 12 12 11 6 4 5 8 10 10 7 10 9 5 4
15 15 18 19 15 8 14 12 16 18 20 20 19 17 17 16 16 13 12 12 12 11 11 10 9 7 6 5 4 6 6 9 6 6 4 6 6 5 4 4 5 4 4
13 13 14 16 18 20 12 13 17 19 19 18 16 16 14 15 15 13 13 12 12 13 13 11 11 11 10 9 10 9 7 6 6 5 3 3 2 3 3 2 4 4 3
9 14 14 15 19 19 13 15 18 20 20 18 15 14 13 12 12 11 5 9 10 14 13 14 12 7 10 17 17 14 14 14 11 3 4 3 2 3 3 3 3 3 4
Wind_Direction
143 132 127 128 123 127 128 132 131 142 132 122 115 92 107 96 74 73 74 67 74 66 80 78 74 62 60 50 50 78 53 33 24 104 86 76 77 73 66 68 49 43 37
145 142 136 140 148 148 140 137 141 145 132 130 120 123 134 102 104 95 77 76 79 80 84 89 80 74 71 52 52 63 75 52 18 116 105 129 132 75 67 58 52 40 32
156 153 153 149 141 154 157 154 154 156 147 132 126 112 102 76 92 86 83 69 81 81 89 87 92 84 75 72 62 60 72 108 45 51 115 118 156 88 55 53 46 38 30
150 152 158 161 164 167 155 151 163 167 173 156 146 154 147 144 140 135 113 95 87 84 90 91 88 86 80 72 65 52 60 83 87 71 53 60 75 120 69 26 32 17 27
163 169 173 173 175 160 161 165 165 169 168 163 157 152 138 121 128 123 112 106 87 87 92 95 90 88 77 73 76 64 64 55 75 60 99 61 51 47 76 47 335 356 349
181 185 181 162 164 160 158 157 165 176 168 164 159 154 147 144 143 138 127 122 106 94 92 93 97 92 86 81 77 73 69 69 71 67 65 69 82 39 66 69 324 295 298
190 183 168 168 161 164 164 163 165 180 181 170 161 152 151 148 150 144 139 136 126 113 118 106 103 93 95 93 86 75 71 73 84 83 82 82 79 80 90 82 26 333 304
188 185 171 167 167 173 166 167 176 180 181 175 162 158 153 150 151 145 141 137 133 138 134 112 109 106 103 94 88 87 87 83 82 88 82 77 67 63 60 66 53 10 326
186 187 178 173 169 172 174 169 172 173 168 167 156 163 154 150 148 143 138 139 135 136 126 116 119 114 106 102 97 96 99 97 93 83 82 84 71 60 58 59 49 91 6
195 192 180 177 176 175 171 166 163 158 151 151 158 156 149 143 142 142 143 146 139 127 127 119 125 117 109 108 107 104 102 103 92 93 93 80 73 66 56 57 54 50 99
205 198 192 175 167 163 163 157 150 147 144 139 128 138 140 138 140 141 143 140 131 137 129 126 128 125 120 119 112 110 111 109 109 101 94 82 74 67 61 58 56 42 29
194 194 187 175 171 164 162 160 156 151 148 139 129 132 135 135 135 142 142 136 139 137 132 126 124 127 128 131 134 125 120 119 113 102 90 80 74 56 47 53 38 37 322
197 182 172 179 173 164 161 161 158 154 148 143 142 140 144 141 141 143 142 139 137 135 133 125 122 124 131 130 132 133 131 119 119 108 98 89 76 54 38 37 18 5 4
165 174 171 173 166 165 160 154 157 157 153 150 153 149 151 148 146 143 143 143 140 131 125 117 111 108 110 116 141 136 130 112 113 104 96 89 75 67 47 45 17 8 348
168 166 160 160 160 157 160 167 160 159 161 156 157 156 147 145 146 146 141 136 137 127 124 116 107 108 105 101 121 128 126 116 114 109 100 91 83 69 60 63 14 11 5
167 150 152 160 163 162 165 167 166 165 161 163 160 152 150 146 155 148 140 137 130 126 122 121 127 129 121 126 119 125 125 125 124 121 118 109 78 63 50 39 32 37 25
344 201 166 171 183 181 169 173 167 157 163 165 160 159 156 156 156 152 144 144 139 132 130 129 132 133 139 150 132 134 121 118 118 122 120 94 78 73 59 36 38 32 24
329 311 261 191 183 178 177 161 164 164 162 164 166 163 162 161 159 154 151 147 145 143 142 141 142 140 149 159 150 142 119 113 102 108 108 112 90 59 60 37 25 28 15
318 307 293 210 176 177 174 167 164 162 164 168 168 168 167 161 159 159 157 154 147 146 146 148 145 146 151 168 169 146 121 116 111 110 111 107 93 51 48 41 33 25 22
332 326 298 182 181 175 167 166 168 171 171 171 171 169 165 162 164 161 161 158 150 150 144 145 146 150 149 175 161 133 133 127 129 111 95 99 83 54 51 53 48 36 358
341 347 336 173 181 170 169 175 171 177 175 166 161 164 168 163 160 152 157 152 152 148 146 143 144 140 155 167 158 136 144 143 140 129 126 92 67 66 71 65 59 42 353
348 348 355 354 268 179 173 174 184 170 160 160 160 162 160 160 158 157 154 158 150 145 147 143 136 140 149 150 141 131 129 141 136 145 150 141 91 89 78 65 55 37 351
341 340 343 338 339 205 205 177 176 164 159 160 164 161 160 162 164 164 164 159 158 154 156 156 155 158 154 149 142 135 129 126 119 139 152 120 102 93 71 66 50 33 24
339 333 340 337 337 295 208 198 172 166 161 161 164 163 167 165 165 168 171 169 171 164 164 163 163 162 159 164 161 139 129 122 114 124 118 112 110 97 94 59 42 35 20
335 336 327 328 337 335 221 185 179 163 165 162 163 164 169 167 170 172 176 178 182 176 171 172 167 164 174 183 167 154 151 149 147 133 97 84 75 75 70 51 48 27 17
329 332 319 323 324 325 282 182 181 171 164 162 166 169 166 169 170 160 110 54 155 158 153 150 165 165 150 155 160 156 152 152 151 121 134 123 127 122 105 66 48 26 18